Find Local Weather

World > North America > United States > Pennsylvania

Lancaster, Pennsylvania Regional Weather

Lat: 40.04N, Lon: 76.3W
Wx Zone: PAZ066
Feedback
Expires:201808201500;;948800
ASUS41 KPHI 201413
RWRPHI

REGIONAL WEATHER ROUNDUP
NATIONAL WEATHER SERVICE MOUNT HOLLY NJ
1000 AM EDT MON AUG 20 2018

NOTE:  "FAIR" INDICATES FEW OR NO CLOUDS BELOW 12,000 FEET WITH NO
SIGNIFICANT WEATHER AND/OR OBSTRUCTIONS TO VISIBILITY.

 * = STATION DOES NOT REPORT PRECIPITATION (E.G. RAIN, SNOW, ETC.) 
        OR FOG.


PAZ043-044-047-054-055-060>062-066>071-201500-
EASTERN PENNSYLVANIA
  
CITY           SKY/WX    TMP DP  RH WIND       PRES   REMARKS
PHILADELPHIA   FAIR      73  63  70 NE9       30.11F                  
NORTH PHILA    CLOUDY    74  62  66 E10       30.13S                  
BLUE BELL*     CLOUDY    68  63  83 NE6       30.14S                  
DOYLESTOWN     CLOUDY    70  63  78 VRB3      30.14R                  
QUAKERTOWN*    CLOUDY    70  63  78 VRB6      30.15S                  
PERKASIE*      CLOUDY    68  64  88 E5        30.16R                  
POTTSTOWN      PTSUNNY   69  63  81 NE8       30.14S                  
LANCASTER      PTSUNNY   72  66  81 NE6       30.13R                  
COATESVILLE    PTSUNNY   68  64  88 E13       30.14F                  
READING        PTSUNNY   71  63  75 E9        30.12S                  
ALLENTOWN      CLOUDY    71  61  70 NE10      30.15R                  
MOUNT POCONO   PTSUNNY   63  59  87 E8        30.19R                  
HAZLETON       FAIR      70  59  68 MISG      30.19S                  
LEHIGHTON      FAIR      70  61  73 E6        30.16S                  
WILKES BARRE   FAIR      69  59  70 E3        30.16S                  

$$

SKY/WX - Weather  TMP - Temperature  DP - Dewpoint  RH - Relative Humidity
WIND - Wind Direction/Speed PRES - Barometric Pressure